Vertical_Velocity
-0 -3 -5 1 11 7 10 3 6 9 -3 -2 -2 1 -2 2 4 5 -3 34 0 -0
4 4 -0 -1 -4 -3 1 -0 0 7 3 5 6 2 1 -1 2 4 78 37 8 6
-2 2 -1 1 -1 3 3 -1 -3 1 2 3 3 -0 -1 5 2 -12 22 -1 3 8
-2 -2 -1 -1 -1 1 1 -0 0 -0 0 6 8 1 1 -5 1 -2 -3 -3 -5 5
-2 -2 -1 -1 -1 2 0 0 1 0 3 4 2 -2 -5 13 10 5 -1 -1 5 1
0 -1 2 -0 -1 -1 -0 2 3 2 -1 6 3 4 -2 1 -3 3 2 -3 4 3
-2 -0 2 4 2 1 1 0 -1 -1 -0 -1 -1 1 2 -0 -0 3 2 0 -6 -5
2 -1 1 2 1 1 2 2 1 -0 -1 -1 1 1 2 0 1 -1 2 4 0 -0
-2 -1 2 2 -1 2 3 2 2 -0 1 1 -1 -1 -3 -2 -1 -0 2 -0 -1 -1
0 2 -0 -0 0 0 2 2 2 0 6 5 9 5 7 8 7 3 -1 1 8 3
-0 -1 -0 2 -1 -1 1 3 4 4 11 4 1 3 3 3 1 -0 -2 -1 -4 -5
-1 1 0 1 1 2 4 2 -0 0 -0 -1 -2 -2 -3 -0 1 3 3 2 1 -0
0 -1 -0 0 0 1 1 1 1 2 2 3 3 2 3 3 3 2 2 4 2 2
0 0 1 1 2 1 1 1 2 1 0 0 1 0 0 0 -1 1 1 -0 0 -0
Height
5614 5613 5612 5612 5614 5618 5623 5628 5632 5640 5651 5661 5670 5675 5681 5687 5692 5693 5698 5699 5699 5700
5603 5601 5600 5598 5599 5602 5608 5614 5618 5624 5633 5645 5653 5662 5666 5671 5679 5686 5681 5676 5682 5686
5593 5591 5590 5590 5591 5595 5599 5604 5608 5611 5618 5627 5637 5645 5651 5657 5663 5666 5659 5665 5670 5670
5585 5583 5581 5581 5584 5587 5592 5597 5600 5602 5607 5615 5623 5630 5638 5642 5646 5647 5650 5656 5657 5658
5586 5582 5579 5577 5579 5582 5586 5590 5593 5595 5598 5604 5611 5618 5625 5627 5633 5634 5638 5642 5646 5647
5587 5583 5580 5578 5577 5578 5580 5582 5585 5588 5591 5596 5601 5605 5610 5615 5619 5623 5627 5630 5632 5633
5588 5584 5581 5579 5577 5575 5576 5577 5578 5580 5583 5588 5592 5596 5600 5605 5610 5613 5616 5618 5619 5621
5588 5584 5582 5579 5577 5575 5575 5574 5575 5577 5579 5582 5585 5588 5591 5595 5599 5601 5603 5604 5607 5608
5586 5582 5580 5579 5577 5576 5574 5574 5574 5575 5576 5578 5581 5582 5583 5585 5588 5590 5593 5595 5597 5598
5587 5583 5579 5575 5574 5573 5572 5571 5571 5572 5572 5575 5575 5576 5576 5578 5580 5581 5583 5584 5586 5585
5584 5582 5579 5577 5574 5573 5572 5570 5568 5567 5567 5567 5568 5569 5569 5569 5570 5571 5572 5573 5573 5574
5579 5577 5576 5574 5573 5571 5569 5567 5566 5566 5566 5565 5565 5564 5564 5565 5566 5566 5566 5566 5565 5565
5577 5574 5572 5570 5568 5566 5565 5564 5563 5561 5561 5560 5560 5559 5558 5557 5557 5556 5555 5554 5553 5551
5569 5567 5565 5563 5561 5559 5558 5556 5555 5553 5552 5551 5550 5549 5547 5546 5545 5543 5541 5539 5537 5536